Date String (YYYY-MM-DD hh:mm:ss) UTC,Instrument flags,Ambient pressure (hPa),Sample flow (lpm),Bypass flow (lpm),Sample temperature (°C),Ambient temperature (°C),ASC tube jacket temperature (°C),LED temperature (°C),Box temperature (°C),Sample RH (%),Span deviation,Mass concentration (μg/m³),Mass concentration (μg/m³),Mass concentration (μg/m³)
DateTimeUTC,F1_M11,P_M11,Q1_M11,Q2_M11,T1_M11,T2_M11,T3_M11,T4_M11,T5_M11,U1_M11,ZSPAN_M11,X0_M11,X2_M11,X1_M11
2021-12-19 18:00:00,,0823.7,4.99,0.00,25.5,24.4,00.0,34.4,27.1,03.7,0000.0,0001.28,0000.65,0000.44
2021-12-19 18:01:00,,0823.6,5.01,0.00,25.4,24.4,00.0,34.4,27.1,03.5,0000.0,0001.17,0000.65,0000.43
2021-12-19 18:02:00,,0823.7,4.99,0.00,25.4,24.4,00.0,34.4,27.1,03.4,0000.0,0001.76,0000.65,0000.43
2021-12-19 18:03:00,,0823.6,5.01,0.00,25.4,24.4,00.0,34.4,27.1,03.4,0000.0,0001.97,0000.64,0000.42
2021-12-19 18:04:00,,0823.6,5.00,0.00,25.4,24.4,00.0,34.4,27.1,03.4,0000.0,0001.97,0000.63,0000.42
2021-12-19 18:05:00,,0823.7,4.98,0.00,25.4,24.4,00.0,34.4,27.1,03.4,0000.0,0001.93,0000.62,0000.43
2021-12-19 18:06:00,,0823.5,4.98,0.00,25.4,24.3,00.0,34.4,27.1,03.5,0000.0,0002.78,0000.62,0000.42
2021-12-19 18:07:00,,0823.4,5.01,0.00,25.4,24.3,00.0,34.4,27.1,03.6,0000.0,0002.72,0000.59,0000.42
2021-12-19 18:08:00,,0823.3,5.00,0.00,25.4,24.3,00.0,34.4,27.1,03.7,0000.0,0002.65,0000.56,0000.42
2021-12-19 18:09:00,,0823.4,4.99,0.00,25.4,24.4,00.0,34.4,27.1,03.7,0000.0,0002.99,0000.58,0000.43
2021-12-19 18:10:00,,0823.4,4.99,0.00,25.4,24.3,00.0,34.4,27.0,03.6,0000.0,0002.94,0000.57,0000.43
2021-12-19 18:11:00,,0823.5,5.01,0.00,25.4,24.3,00.0,34.4,27.0,03.5,0000.0,0002.90,0000.56,0000.42
2021-12-19 18:12:00,,0823.5,5.00,0.00,25.4,24.3,00.0,34.4,27.0,03.5,0000.0,0002.93,0000.56,0000.41
2021-12-19 18:13:00,,0823.6,4.99,0.00,25.4,24.3,00.0,34.4,27.0,03.6,0000.0,0002.34,0000.56,0000.41
2021-12-19 18:14:00,,0823.5,5.01,0.00,25.4,24.3,00.0,34.4,27.1,03.6,0000.0,0002.17,0000.56,0000.41
2021-12-19 18:15:00,,0823.4,5.01,0.00,25.4,24.3,00.0,34.4,27.0,03.6,0000.0,0002.19,0000.57,0000.41
2021-12-19 18:16:00,,0823.4,5.00,0.00,25.4,24.3,00.0,34.4,27.0,03.6,0000.0,0002.45,0000.58,0000.41
2021-12-19 18:17:00,,0823.5,5.00,0.00,25.4,24.3,00.0,34.4,27.1,03.7,0000.0,0002.69,0000.58,0000.42
2021-12-19 18:18:00,,0823.4,4.99,0.00,25.4,24.4,00.0,34.4,27.1,03.7,0000.0,0002.56,0000.59,0000.42
2021-12-19 18:19:00,,0823.5,5.00,0.00,25.4,24.4,00.0,34.4,27.1,03.9,0000.0,0002.86,0000.61,0000.44
2021-12-19 18:20:00,,0823.5,5.00,0.00,25.4,24.4,00.0,34.4,27.2,03.9,0000.0,0003.34,0000.64,0000.47
2021-12-19 18:21:00,,0823.4,5.01,0.00,25.4,24.4,00.0,34.4,27.2,04.1,0000.0,0003.39,0000.65,0000.48
2021-12-19 18:22:00,,0823.4,5.00,0.00,25.5,24.5,00.0,34.4,27.2,03.9,0000.0,0003.40,0000.65,0000.50
2021-12-19 18:23:00,,0823.4,4.99,0.00,25.5,24.5,00.0,34.4,27.2,03.9,0000.0,0003.40,0000.68,0000.51
2021-12-19 18:24:00,,0823.3,5.00,0.00,25.5,24.4,00.0,34.4,27.2,03.9,0000.0,0003.41,0000.70,0000.52
2021-12-19 18:25:00,,0823.4,5.01,0.00,25.5,24.4,00.0,34.4,27.2,03.8,0000.0,0003.34,0000.71,0000.52
2021-12-19 18:26:00,,0823.2,4.99,0.00,25.5,24.4,00.0,34.4,27.2,03.8,0000.0,0003.37,0000.71,0000.52
2021-12-19 18:27:00,,0823.1,4.99,0.00,25.5,24.4,00.0,34.4,27.2,03.8,0000.0,0003.16,0000.72,0000.52
2021-12-19 18:28:00,,0823.0,5.01,0.00,25.5,24.4,00.0,34.4,27.2,03.9,0000.0,0002.57,0000.80,0000.52
2021-12-19 18:29:00,,0823.1,4.99,0.00,25.5,24.4,00.0,34.4,27.2,03.9,0000.0,0003.67,0000.93,0000.53
2021-12-19 18:30:00,,0823.0,5.00,0.00,25.5,24.4,00.0,34.4,27.2,03.8,0000.0,0004.35,0000.95,0000.53
2021-12-19 18:31:00,,0823.1,5.01,0.00,25.5,24.4,00.0,34.4,27.2,03.8,0000.0,0003.49,0000.92,0000.50
2021-12-19 18:32:00,,0823.3,5.01,0.00,25.5,24.4,00.0,34.4,27.2,03.9,0000.0,0003.47,0000.94,0000.50
2021-12-19 18:33:00,,0823.3,4.99,0.00,25.5,24.4,00.0,34.5,27.3,03.9,0000.0,0003.63,0001.01,0000.53
2021-12-19 18:34:00,,0823.3,4.99,0.00,25.5,24.5,00.0,34.5,27.3,03.9,0000.0,0003.67,0001.03,0000.56
2021-12-19 18:35:00,,0823.2,5.01,0.00,25.5,24.6,00.0,34.5,27.3,04.0,0000.0,0003.74,0001.05,0000.58
2021-12-19 18:36:00,,0823.2,5.02,0.00,25.5,24.6,00.0,34.5,27.3,03.9,0000.0,0003.76,0001.06,0000.61
2021-12-19 18:37:00,,0823.1,5.00,0.00,25.6,24.6,00.0,34.5,27.4,04.0,0000.0,0003.77,0001.09,0000.64
2021-12-19 18:38:00,,0823.2,5.00,0.00,25.6,24.7,00.0,34.5,27.4,04.0,0000.0,0005.27,0001.13,0000.67
2021-12-19 18:39:00,,0823.1,5.00,0.00,25.6,24.7,00.0,34.5,27.4,03.9,0000.0,0005.18,0001.09,0000.69
2021-12-19 18:40:00,,0823.1,5.01,0.00,25.6,24.8,00.0,34.5,27.4,04.0,0000.0,0004.41,0001.03,0000.71
2021-12-19 18:41:00,,0823.2,4.99,0.00,25.6,24.8,00.0,34.5,27.4,04.0,0000.0,0003.74,0001.04,0000.73
2021-12-19 18:42:00,,0823.1,5.01,0.00,25.6,24.8,00.0,34.5,27.4,03.9,0000.0,0003.75,0001.04,0000.75
2021-12-19 18:43:00,,0823.0,5.00,0.00,25.6,24.8,00.0,34.5,27.4,03.9,0000.0,0003.86,0001.05,0000.73
2021-12-19 18:44:00,,0823.0,5.01,0.00,25.6,24.8,00.0,34.5,27.4,03.8,0000.0,0004.68,0000.99,0000.70
2021-12-19 18:45:00,,0823.0,5.01,0.00,25.7,24.8,00.0,34.6,27.4,03.8,0000.0,0004.95,0000.93,0000.66
2021-12-19 18:46:00,,0823.0,4.99,0.00,25.7,24.7,00.0,34.6,27.4,03.8,0000.0,0004.85,0000.87,0000.62
2021-12-19 18:47:00,,0822.8,5.01,0.00,25.7,24.7,00.0,34.6,27.4,03.7,0000.0,0004.88,0000.84,0000.59
2021-12-19 18:48:00,,0822.9,4.98,0.00,25.7,24.7,00.0,34.6,27.4,03.8,0000.0,0004.92,0000.83,0000.57
2021-12-19 18:49:00,,0823.1,5.02,0.00,25.7,24.6,00.0,34.6,27.4,03.9,0000.0,0003.88,0000.82,0000.56
2021-12-19 18:50:00,,0823.1,4.99,0.00,25.7,24.6,00.0,34.6,27.4,04.0,0000.0,0003.51,0000.83,0000.57
2021-12-19 18:51:00,,0823.1,5.00,0.00,25.7,24.7,00.0,34.6,27.5,04.0,0000.0,0003.38,0000.81,0000.56
2021-12-19 18:52:00,,0823.1,5.00,0.00,25.7,24.7,00.0,34.6,27.4,04.1,0000.0,0005.29,0000.81,0000.57
2021-12-19 18:53:00,,0823.1,4.99,0.00,25.7,24.7,00.0,34.6,27.4,04.0,0000.0,0005.49,0000.81,0000.57
2021-12-19 18:54:00,,0823.1,5.01,0.00,25.7,24.7,00.0,34.6,27.5,04.0,0000.0,0005.62,0000.82,0000.59
2021-12-19 18:55:00,,0823.0,5.00,0.00,25.7,24.8,00.0,34.6,27.5,03.9,0000.0,0006.36,0000.78,0000.60
2021-12-19 18:56:00,,0822.9,4.99,0.00,25.7,24.8,00.0,34.6,27.4,03.8,0000.0,0005.29,0000.76,0000.60
2021-12-19 18:57:00,,0822.8,5.01,0.00,25.7,24.8,00.0,34.6,27.4,03.7,0000.0,0005.29,0000.76,0000.60
2021-12-19 18:58:00,,0822.8,4.99,0.00,25.7,24.8,00.0,34.6,27.4,03.7,0000.0,0005.25,0000.78,0000.60
2021-12-19 18:59:00,,0822.8,5.01,0.00,25.7,24.8,00.0,34.6,27.4,03.8,0000.0,0005.21,0000.78,0000.60
